contact:dominique.lefevre@mio.osupytheas.fr, maurice.libes@osupytheas.fr, didier.mallarino@osupytheas.fr
Project:EMSO http://www.emso-fr.org/EMSO-France
Depth: 2436.0 m
Title:EMSO Ligure Ouest : Data MII capteur AQUADOPP
Date,Latitude,Longitude,X_East,Y_North,Z_Up,Amplitude_X,Amplitude_Y,Amplitude_Z,Batterie,SoundSpeed,Heading,Pitch,Roll,Pressure,TIS,Speed,Direction
, degrees North, degrees East, m.s-1, m.s-1,m.s-1, 1, 1, 1, Volt, m.s-1, degree, degree, degree, dbar, degree_C, m.s-1, degree
2019-12-01T00:04:03,42.805,6.029,-0.005,0.028,0.024,104.0,112.0,101.0,13.4,1505.3,323.8,-0.7,1.8,2470.242,13.32,0.028,349.9
2019-12-01T00:07:03,42.805,6.029,0.01,0.005,-0.025,103.0,112.0,100.0,13.3,1505.3,323.2,-0.7,1.9,2470.238,13.33,0.011,63.4
2019-12-01T00:10:03,42.805,6.029,0.003,0.037,-0.03,104.0,111.0,102.0,13.3,1505.3,324.6,-0.7,1.8,2470.214,13.33,0.037,4.6
2019-12-01T00:13:03,42.805,6.029,0.003,0.019,-0.012,104.0,111.0,102.0,13.3,1505.3,325.5,-0.7,1.9,2470.2,13.33,0.019,9.0
2019-12-01T00:16:03,42.805,6.029,-0.013,0.022,-0.023,103.0,111.0,100.0,13.4,1505.4,323.2,-0.7,1.8,2470.217,13.34,0.025,329.4
2019-12-01T00:19:03,42.805,6.029,-0.007,0.028,-0.032,104.0,110.0,102.0,13.3,1505.4,324.7,-0.7,1.8,2470.23,13.34,0.028,346.0
2019-12-01T00:22:03,42.805,6.029,-0.01,0.006,-0.01,105.0,111.0,99.0,13.3,1505.4,322.9,-0.8,1.8,2470.176,13.34,0.011,301.0
2019-12-01T00:25:03,42.805,6.029,-0.013,0.029,-0.04,103.0,110.0,100.0,13.4,1505.4,325.0,-0.7,1.8,2470.205,13.34,0.031,335.9
2019-12-01T00:28:03,42.805,6.029,0.007,0.023,-0.01,105.0,112.0,101.0,13.4,1505.4,324.3,-0.7,1.9,2470.164,13.34,0.024,16.9
2019-12-01T00:31:03,42.805,6.029,0.002,0.01,-0.015,104.0,111.0,100.0,13.3,1505.4,327.1,-0.7,1.8,2470.179,13.34,0.01,11.3
2019-12-01T00:34:03,42.805,6.029,-0.018,0.034,-0.029,101.0,112.0,101.0,13.3,1505.4,325.9,-0.7,1.9,2470.234,13.34,0.038,332.1
2019-12-01T00:37:03,42.805,6.029,-0.027,0.02,-0.023,104.0,112.0,101.0,13.4,1505.4,324.5,-0.7,1.9,2470.21,13.34,0.033,306.5
2019-12-01T00:40:03,42.805,6.029,0.021,0.023,-0.024,106.0,110.0,100.0,13.3,1505.4,326.2,-0.7,1.8,2470.151,13.34,0.031,42.4
2019-12-01T00:43:03,42.805,6.029,-0.019,0.027,-0.015,103.0,111.0,100.0,13.4,1505.4,326.7,-0.7,1.8,2470.174,13.34,0.033,324.9
2019-12-01T00:46:03,42.805,6.029,0.036,0.02,-0.012,105.0,109.0,102.0,13.4,1505.4,325.1,-0.7,1.9,2470.202,13.34,0.041,60.9
2019-12-01T00:49:03,42.805,6.029,-0.009,0.028,-0.032,104.0,110.0,101.0,13.3,1505.4,327.7,-0.7,1.8,2470.192,13.34,0.029,342.2
2019-12-01T00:52:03,42.805,6.029,0.021,0.007,-0.014,105.0,111.0,100.0,13.4,1505.4,323.2,-0.7,1.8,2470.195,13.34,0.022,71.6
2019-12-01T00:55:03,42.805,6.029,0.0,0.029,-0.044,105.0,109.0,101.0,13.4,1505.4,327.9,-0.7,1.8,2470.197,13.34,0.028,0.0
2019-12-01T00:58:03,42.805,6.029,-0.021,0.018,-0.025,104.0,110.0,100.0,13.4,1505.4,326.5,-0.7,1.8,2470.178,13.34,0.027,310.6
2019-12-01T01:04:03,42.805,6.029,-0.008,0.004,-0.028,106.0,112.0,101.0,13.3,1505.3,326.8,-0.7,1.8,2470.215,13.32,0.008,296.6
2019-12-01T01:07:03,42.805,6.029,0.0,0.033,-0.032,104.0,112.0,101.0,13.3,1505.3,326.2,-0.7,1.8,2470.192,13.33,0.033,0.0
2019-12-01T01:10:03,42.805,6.029,-0.007,0.038,-0.019,103.0,111.0,102.0,13.4,1505.3,324.7,-0.7,1.8,2470.215,13.33,0.038,349.6
2019-12-01T01:13:03,42.805,6.029,-0.012,0.039,-0.044,103.0,111.0,101.0,13.4,1505.3,327.5,-0.7,1.8,2470.177,13.33,0.04,342.9
2019-12-01T01:16:03,42.805,6.029,0.001,0.029,-0.007,102.0,111.0,100.0,13.4,1505.4,325.3,-0.7,1.8,2470.191,13.34,0.029,2.0
2019-12-01T01:19:03,42.805,6.029,-0.002,0.032,-0.014,104.0,112.0,101.0,13.4,1505.4,323.2,-0.7,1.8,2470.207,13.34,0.032,356.4
2019-12-01T01:22:03,42.805,6.029,0.005,0.033,-0.034,103.0,109.0,102.0,13.4,1505.4,328.3,-0.7,1.8,2470.191,13.34,0.033,8.6
2019-12-01T01:25:03,42.805,6.029,-0.009,0.02,-0.018,104.0,110.0,102.0,13.4,1505.4,326.2,-0.7,1.9,2470.199,13.34,0.021,335.8
2019-12-01T01:28:03,42.805,6.029,-0.003,0.034,-0.028,104.0,110.0,100.0,13.3,1505.4,326.9,-0.7,1.8,2470.187,13.34,0.034,355.0
2019-12-01T01:31:03,42.805,6.029,-0.004,0.013,-0.017,104.0,111.0,101.0,13.3,1505.4,325.1,-0.7,1.8,2470.146,13.34,0.013,342.9
2019-12-01T01:34:03,42.805,6.029,0.003,0.011,-0.064,105.0,111.0,101.0,13.4,1505.4,324.5,-0.7,1.8,2470.198,13.34,0.011,15.3
2019-12-01T01:37:03,42.805,6.029,0.009,0.036,-0.016,103.0,110.0,101.0,13.4,1505.4,324.4,-0.7,1.8,2470.16,13.34,0.037,14.0
2019-12-01T01:40:03,42.805,6.029,-0.005,0.032,-0.048,103.0,111.0,101.0,13.4,1505.4,325.4,-0.6,1.8,2470.206,13.34,0.032,351.1
2019-12-01T01:43:03,42.805,6.029,-0.007,0.035,-0.069,103.0,112.0,101.0,13.4,1505.4,325.0,-0.7,1.8,2470.192,13.34,0.035,348.7
2019-12-01T01:46:03,42.805,6.029,-0.017,0.029,-0.007,103.0,112.0,101.0,13.4,1505.4,323.5,-0.7,1.8,2470.186,13.34,0.033,329.6
2019-12-01T01:49:03,42.805,6.029,0.012,0.044,-0.019,103.0,111.0,101.0,13.4,1505.4,325.1,-0.7,1.8,2470.188,13.34,0.045,15.3
2019-12-01T01:52:03,42.805,6.029,0.009,0.027,-0.03,104.0,112.0,101.0,13.4,1505.4,326.3,-0.7,1.9,2470.144,13.34,0.028,18.4
2019-12-01T01:55:03,42.805,6.029,0.0,0.032,-0.034,104.0,110.0,100.0,13.4,1505.4,328.3,-0.7,1.8,2470.181,13.34,0.032,0.0
2019-12-01T01:58:03,42.805,6.029,0.005,0.004,-0.033,104.0,111.0,101.0,13.4,1505.4,327.6,-0.7,1.8,2470.17,13.34,0.006,51.3
2019-12-01T02:04:03,42.805,6.029,-0.002,0.026,-0.016,104.0,111.0,100.0,13.4,1505.3,327.0,-0.8,1.8,2470.179,13.32,0.026,355.6
2019-12-01T02:07:03,42.805,6.029,0.0,0.025,0.001,104.0,110.0,100.0,13.4,1505.3,324.7,-0.7,1.8,2470.177,13.33,0.025,0.0
2019-12-01T02:13:03,42.805,6.029,-0.001,0.006,-0.048,103.0,110.0,101.0,13.3,1505.3,327.2,-0.7,1.8,2470.221,13.31,0.006,350.5
2019-12-01T02:16:03,42.805,6.029,0.0,0.021,-0.043,103.0,110.0,101.0,13.4,1505.3,324.6,-0.7,1.8,2470.164,13.32,0.021,0.0
2019-12-01T02:19:03,42.805,6.029,-0.009,0.03,-0.018,105.0,110.0,102.0,13.4,1505.3,324.7,-0.7,1.8,2470.208,13.33,0.031,343.3
2019-12-01T02:22:03,42.805,6.029,0.009,0.015,-0.047,105.0,113.0,101.0,13.4,1505.3,326.3,-0.7,1.8,2470.235,13.33,0.017,31.0
2019-12-01T02:25:03,42.805,6.029,0.014,0.022,0.001,105.0,110.0,101.0,13.4,1505.3,326.0,-0.7,1.8,2470.159,13.33,0.026,32.5
2019-12-01T02:28:03,42.805,6.029,-0.004,0.023,-0.019,104.0,110.0,100.0,13.4,1505.4,324.8,-0.7,1.8,2470.192,13.34,0.023,350.1
2019-12-01T02:31:03,42.805,6.029,-0.005,0.02,0.003,104.0,110.0,101.0,13.4,1505.4,325.3,-0.7,1.8,2470.138,13.34,0.02,346.0
2019-12-01T02:34:03,42.805,6.029,-0.019,0.034,-0.055,103.0,111.0,101.0,13.4,1505.4,325.7,-0.7,1.8,2470.205,13.34,0.038,330.8
2019-12-01T02:37:03,42.805,6.029,0.021,0.035,0.0,102.0,109.0,102.0,13.4,1505.4,324.8,-0.7,1.8,2470.177,13.34,0.04,31.0
2019-12-01T02:40:03,42.805,6.029,-0.011,0.028,-0.001,104.0,109.0,101.0,13.4,1505.4,324.3,-0.7,1.8,2470.171,13.34,0.03,338.6
2019-12-01T02:43:03,42.805,6.029,-0.012,0.0,-0.025,104.0,110.0,101.0,13.3,1505.4,325.2,-0.7,1.9,2470.133,13.34,0.012,270.0
2019-12-01T02:46:03,42.805,6.029,0.01,0.003,-0.018,104.0,109.0,100.0,13.4,1505.4,325.5,-0.7,1.8,2470.159,13.34,0.01,73.3
2019-12-01T02:49:03,42.805,6.029,-0.003,0.042,-0.035,102.0,111.0,102.0,13.3,1505.4,327.0,-0.7,1.8,2470.14,13.34,0.042,355.9
2019-12-01T02:52:03,42.805,6.029,0.011,0.031,0.017,104.0,109.0,100.0,13.3,1505.4,325.3,-0.7,1.8,2470.139,13.34,0.032,19.5
2019-12-01T02:55:03,42.805,6.029,0.004,0.038,-0.009,103.0,109.0,100.0,13.4,1505.4,325.6,-0.7,1.8,2470.166,13.34,0.038,6.0
2019-12-01T02:58:03,42.805,6.029,-0.003,0.046,-0.002,103.0,110.0,101.0,13.4,1505.4,326.1,-0.7,1.8,2470.142,13.34,0.046,356.3
2019-12-01T03:04:03,42.805,6.029,-0.012,0.044,-0.003,105.0,110.0,101.0,13.3,1505.3,326.3,-0.8,1.8,2470.144,13.32,0.045,344.7
2019-12-01T03:07:03,42.805,6.029,-0.012,0.04,-0.027,102.0,108.0,101.0,13.4,1505.3,326.6,-0.7,1.8,2470.185,13.33,0.041,343.3
2019-12-01T03:10:03,42.805,6.029,0.036,0.009,-0.029,105.0,109.0,100.0,13.3,1505.3,324.9,-0.7,1.9,2470.195,13.33,0.037,76.0
2019-12-01T03:13:03,42.805,6.029,0.0,0.023,-0.022,105.0,109.0,100.0,13.3,1505.3,326.1,-0.7,1.9,2470.191,13.33,0.023,0.0
2019-12-01T03:16:03,42.805,6.029,-0.006,0.005,-0.031,104.0,108.0,101.0,13.4,1505.4,326.7,-0.7,1.9,2470.187,13.34,0.007,309.8
2019-12-01T03:19:03,42.805,6.029,-0.013,0.032,-0.017,102.0,111.0,102.0,13.4,1505.4,326.3,-0.7,1.8,2470.236,13.34,0.034,337.9
2019-12-01T03:22:03,42.805,6.029,-0.028,0.011,0.0,105.0,110.0,101.0,13.3,1505.4,325.3,-0.7,1.9,2470.161,13.34,0.03,291.4
2019-12-01T03:25:03,42.805,6.029,-0.005,0.033,-0.037,102.0,109.0,101.0,13.4,1505.4,324.3,-0.7,1.8,2470.152,13.34,0.033,351.4
2019-12-01T03:28:03,42.805,6.029,-0.035,0.026,-0.056,103.0,109.0,102.0,13.4,1505.4,327.3,-0.7,1.8,2470.123,13.34,0.043,306.6
2019-12-01T03:31:03,42.805,6.029,-0.013,0.018,-0.015,104.0,109.0,100.0,13.4,1505.4,326.7,-0.7,1.8,2470.16,13.34,0.022,324.2
2019-12-01T03:34:03,42.805,6.029,0.001,0.004,-0.04,103.0,110.0,101.0,13.4,1505.4,328.1,-0.7,1.9,2470.178,13.34,0.004,14.0
2019-12-01T03:37:03,42.805,6.029,-0.009,0.043,0.009,104.0,111.0,100.0,13.4,1505.4,326.9,-0.7,1.8,2470.171,13.34,0.043,348.2
2019-12-01T03:40:03,42.805,6.029,-0.02,0.017,-0.036,102.0,110.0,101.0,13.3,1505.4,327.4,-0.7,1.8,2470.157,13.34,0.026,310.4
2019-12-01T03:43:03,42.805,6.029,-0.007,0.019,-0.021,103.0,109.0,101.0,13.4,1505.4,325.1,-0.7,1.8,2470.145,13.34,0.02,339.8
2019-12-01T03:46:03,42.805,6.029,-0.01,0.038,-0.027,105.0,109.0,101.0,13.3,1505.4,323.3,-0.7,1.9,2470.172,13.34,0.039,345.3
2019-12-01T03:49:03,42.805,6.029,-0.024,0.011,-0.068,105.0,110.0,100.0,13.4,1505.4,324.6,-0.7,1.8,2470.164,13.34,0.026,294.6
2019-12-01T03:52:03,42.805,6.029,-0.014,0.031,-0.049,104.0,109.0,102.0,13.3,1505.4,323.8,-0.7,1.9,2470.113,13.34,0.034,335.7
2019-12-01T03:55:03,42.805,6.029,-0.021,0.015,-0.031,104.0,110.0,101.0,13.4,1505.4,326.0,-0.7,1.8,2470.094,13.34,0.025,305.5
2019-12-01T03:58:03,42.805,6.029,-0.035,0.041,-0.042,103.0,110.0,101.0,13.4,1505.4,326.2,-0.7,1.8,2470.138,13.34,0.053,319.5
2019-12-01T04:04:03,42.805,6.029,-0.008,0.025,-0.031,103.0,111.0,101.0,13.4,1505.3,325.4,-0.7,1.8,2470.18,13.32,0.026,342.3
2019-12-01T04:07:03,42.805,6.029,-0.012,0.023,-0.03,105.0,110.0,102.0,13.3,1505.3,327.9,-0.7,1.8,2470.191,13.33,0.025,332.4
2019-12-01T04:10:03,42.805,6.029,0.003,0.035,-0.02,104.0,109.0,101.0,13.4,1505.3,324.0,-0.7,1.9,2470.162,13.33,0.035,4.9
2019-12-01T04:13:03,42.805,6.029,-0.02,0.025,-0.025,104.0,110.0,101.0,13.3,1505.3,328.4,-0.7,1.8,2470.183,13.33,0.032,321.3
2019-12-01T04:16:03,42.805,6.029,-0.022,0.025,-0.054,104.0,111.0,101.0,13.4,1505.4,326.2,-0.7,1.8,2470.191,13.34,0.033,318.7
2019-12-01T04:19:03,42.805,6.029,-0.019,0.035,-0.04,105.0,109.0,102.0,13.4,1505.4,328.2,-0.7,1.8,2470.147,13.34,0.039,331.5
2019-12-01T04:22:03,42.805,6.029,-0.017,0.014,-0.044,105.0,110.0,101.0,13.4,1505.4,325.0,-0.7,1.9,2470.166,13.34,0.022,309.5
2019-12-01T04:25:03,42.805,6.029,0.01,0.025,-0.017,105.0,110.0,100.0,13.4,1505.4,328.7,-0.7,1.8,2470.178,13.34,0.026,21.8
2019-12-01T04:28:03,42.805,6.029,-0.009,0.0,-0.06,104.0,111.0,101.0,13.4,1505.4,323.1,-0.7,1.8,2470.16,13.34,0.009,270.0
2019-12-01T04:31:03,42.805,6.029,-0.032,0.023,-0.026,103.0,109.0,101.0,13.4,1505.4,325.6,-0.7,1.8,2470.13,13.34,0.039,305.7
2019-12-01T04:34:03,42.805,6.029,0.003,0.009,-0.03,105.0,112.0,101.0,13.4,1505.4,327.6,-0.8,1.8,2470.164,13.34,0.009,18.4
2019-12-01T04:37:03,42.805,6.029,-0.021,0.022,-0.025,107.0,109.0,101.0,13.4,1505.4,327.1,-0.7,1.8,2470.146,13.34,0.03,316.3
2019-12-01T04:40:03,42.805,6.029,0.002,-0.004,-0.017,104.0,109.0,101.0,13.4,1505.4,326.8,-0.8,1.8,2470.192,13.34,0.004,153.4
2019-12-01T04:43:03,42.805,6.029,-0.023,0.022,-0.053,104.0,110.0,101.0,13.4,1505.4,323.1,-0.8,1.9,2470.183,13.34,0.031,313.7
2019-12-01T04:46:03,42.805,6.029,-0.002,0.014,-0.005,102.0,109.0,101.0,13.4,1505.4,323.5,-0.7,1.8,2470.182,13.34,0.014,351.9
2019-12-01T04:49:03,42.805,6.029,-0.005,0.007,0.0,104.0,109.0,100.0,13.4,1505.4,323.3,-0.7,1.8,2470.15,13.34,0.008,324.5
2019-12-01T04:52:03,42.805,6.029,-0.013,0.035,-0.055,104.0,111.0,101.0,13.4,1505.4,326.2,-0.7,1.8,2470.158,13.34,0.037,339.6
2019-12-01T04:55:03,42.805,6.029,-0.035,0.034,-0.016,103.0,111.0,101.0,13.4,1505.4,323.0,-0.7,1.8,2470.15,13.34,0.048,314.2
2019-12-01T04:58:03,42.805,6.029,-0.03,0.034,-0.057,105.0,110.0,100.0,13.4,1505.4,324.4,-0.8,1.8,2470.13,13.34,0.045,318.6
2019-12-01T05:04:03,42.805,6.029,-0.028,0.022,-0.054,105.0,112.0,101.0,13.3,1505.3,325.4,-0.7,1.8,2470.213,13.32,0.035,308.2
2019-12-01T05:07:03,42.805,6.029,-0.007,0.03,-0.037,104.0,111.0,101.0,13.4,1505.3,327.7,-0.7,1.8,2470.219,13.33,0.03,346.9
2019-12-01T05:10:03,42.805,6.029,-0.014,0.006,-0.013,105.0,110.0,102.0,13.4,1505.3,324.6,-0.7,1.8,2470.153,13.33,0.015,293.2
2019-12-01T05:13:03,42.805,6.029,-0.003,0.029,-0.022,103.0,111.0,101.0,13.3,1505.3,323.4,-0.7,1.8,2470.177,13.33,0.029,354.1
2019-12-01T05:16:03,42.805,6.029,-0.003,0.021,-0.025,105.0,110.0,101.0,13.3,1505.4,326.5,-0.7,1.8,2470.175,13.34,0.021,351.9
2019-12-01T05:19:03,42.805,6.029,-0.023,0.027,-0.034,104.0,111.0,101.0,13.4,1505.4,325.6,-0.7,1.8,2470.199,13.34,0.035,319.6
2019-12-01T05:22:03,42.805,6.029,-0.03,0.033,-0.019,105.0,112.0,101.0,13.4,1505.4,326.4,-0.7,1.8,2470.182,13.34,0.044,317.7
2019-12-01T05:25:03,42.805,6.029,-0.008,0.019,-0.041,103.0,111.0,101.0,13.4,1505.4,328.2,-0.7,1.8,2470.168,13.34,0.02,337.2
2019-12-01T05:28:03,42.805,6.029,-0.013,0.045,-0.022,104.0,110.0,101.0,13.4,1505.4,326.6,-0.7,1.8,2470.18,13.34,0.046,343.9
2019-12-01T05:31:03,42.805,6.029,-0.027,0.018,-0.038,104.0,111.0,102.0,13.4,1505.4,326.8,-0.7,1.8,2470.2,13.34,0.032,303.7
2019-12-01T05:34:03,42.805,6.029,-0.012,0.017,-0.029,105.0,110.0,101.0,13.4,1505.4,326.1,-0.7,1.8,2470.162,13.34,0.02,324.8
2019-12-01T05:37:03,42.805,6.029,-0.023,0.032,-0.001,105.0,112.0,102.0,13.4,1505.4,327.4,-0.7,1.8,2470.171,13.34,0.039,324.3
2019-12-01T05:40:03,42.805,6.029,-0.019,0.019,-0.025,102.0,114.0,100.0,13.4,1505.4,325.7,-0.7,1.8,2470.162,13.34,0.026,315.0
2019-12-01T05:43:03,42.805,6.029,-0.018,0.028,-0.044,105.0,111.0,101.0,13.3,1505.4,328.7,-0.7,1.9,2470.169,13.34,0.033,327.3
2019-12-01T05:46:03,42.805,6.029,-0.009,0.036,-0.02,104.0,112.0,101.0,13.3,1505.4,325.8,-0.7,1.8,2470.187,13.34,0.037,346.0
2019-12-01T05:49:03,42.805,6.029,-0.008,0.026,-0.02,102.0,112.0,102.0,13.4,1505.4,327.0,-0.7,1.8,2470.176,13.34,0.027,342.9
2019-12-01T05:52:03,42.805,6.029,-0.016,0.01,-0.017,106.0,112.0,101.0,13.4,1505.4,324.2,-0.7,1.9,2470.183,13.34,0.018,302.0
2019-12-01T05:55:03,42.805,6.029,-0.023,0.005,-0.045,106.0,113.0,101.0,13.4,1505.4,325.0,-0.7,1.8,2470.179,13.34,0.023,282.3
2019-12-01T05:58:03,42.805,6.029,-0.013,0.027,-0.02,103.0,112.0,101.0,13.4,1505.4,325.1,-0.7,1.8,2470.193,13.34,0.029,334.3
2019-12-01T06:04:03,42.805,6.029,-0.043,0.037,-0.041,103.0,112.0,100.0,13.3,1505.3,327.1,-0.7,1.8,2470.204,13.32,0.056,310.7
2019-12-01T06:07:03,42.805,6.029,-0.029,0.006,-0.048,107.0,113.0,100.0,13.4,1505.3,324.1,-0.7,1.8,2470.182,13.33,0.029,281.7
2019-12-01T06:10:03,42.805,6.029,-0.035,0.008,-0.061,104.0,112.0,101.0,13.3,1505.3,324.7,-0.7,1.9,2470.259,13.33,0.035,282.9
2019-12-01T06:13:03,42.805,6.029,-0.032,0.014,-0.023,103.0,113.0,101.0,13.3,1505.3,327.2,-0.7,1.8,2470.229,13.33,0.034,293.6
2019-12-01T06:16:03,42.805,6.029,0.012,0.035,-0.021,105.0,113.0,101.0,13.4,1505.4,327.9,-0.7,1.8,2470.228,13.34,0.037,18.9
2019-12-01T06:19:03,42.805,6.029,-0.034,0.031,-0.02,105.0,112.0,102.0,13.3,1505.4,324.6,-0.7,1.8,2470.216,13.34,0.046,312.4
2019-12-01T06:22:03,42.805,6.029,-0.023,0.028,-0.049,104.0,113.0,101.0,13.4,1505.4,325.3,-0.7,1.8,2470.181,13.34,0.036,320.6
2019-12-01T06:25:03,42.805,6.029,-0.003,0.022,-0.014,103.0,112.0,101.0,13.3,1505.4,327.7,-0.7,1.8,2470.224,13.34,0.022,352.2
2019-12-01T06:28:03,42.805,6.029,-0.016,0.015,-0.029,103.0,112.0,101.0,13.4,1505.4,325.5,-0.7,1.8,2470.21,13.34,0.021,313.1
2019-12-01T06:31:03,42.805,6.029,-0.048,0.035,-0.025,104.0,112.0,101.0,13.3,1505.4,325.9,-0.7,1.8,2470.202,13.34,0.059,306.1
2019-12-01T06:34:03,42.805,6.029,-0.038,0.018,-0.034,105.0,111.0,100.0,13.3,1505.4,325.1,-0.7,1.8,2470.195,13.34,0.042,295.3
2019-12-01T06:37:03,42.805,6.029,-0.011,0.026,-0.043,103.0,111.0,101.0,13.4,1505.4,328.4,-0.7,1.8,2470.204,13.34,0.028,337.1
2019-12-01T06:40:03,42.805,6.029,-0.022,0.024,-0.021,103.0,112.0,101.0,13.4,1505.4,326.3,-0.7,1.8,2470.213,13.34,0.032,317.5
2019-12-01T06:43:03,42.805,6.029,0.009,0.026,-0.019,105.0,110.0,101.0,13.4,1505.4,323.7,-0.7,1.8,2470.164,13.34,0.027,19.1
2019-12-01T06:46:03,42.805,6.029,-0.016,0.028,-0.027,104.0,112.0,102.0,13.4,1505.4,324.0,-0.8,1.8,2470.239,13.34,0.032,330.3
2019-12-01T06:49:03,42.805,6.029,0.003,0.035,-0.065,104.0,113.0,101.0,13.4,1505.4,328.1,-0.7,1.9,2470.227,13.34,0.035,4.9
2019-12-01T06:52:03,42.805,6.029,-0.011,0.021,-0.028,102.0,113.0,100.0,13.4,1505.4,327.2,-0.8,1.8,2470.278,13.34,0.023,332.4
2019-12-01T06:55:03,42.805,6.029,-0.015,0.013,-0.029,104.0,112.0,101.0,13.3,1505.4,325.9,-0.7,1.8,2470.239,13.34,0.019,310.9
2019-12-01T06:58:03,42.805,6.029,-0.041,0.034,0.0,103.0,112.0,99.0,13.4,1505.4,324.7,-0.7,1.9,2470.252,13.34,0.053,309.7
2019-12-01T07:04:03,42.805,6.029,-0.012,0.034,-0.024,104.0,112.0,101.0,13.4,1505.3,325.3,-0.8,1.8,2470.283,13.32,0.036,340.6
2019-12-01T07:07:03,42.805,6.029,-0.003,0.015,-0.007,103.0,111.0,100.0,13.3,1505.3,324.7,-0.7,1.9,2470.237,13.33,0.015,348.7
2019-12-01T07:10:03,42.805,6.029,-0.008,0.025,-0.032,103.0,111.0,100.0,13.4,1505.3,327.2,-0.7,1.8,2470.292,13.33,0.026,342.3
2019-12-01T07:13:03,42.805,6.029,-0.024,0.026,-0.044,104.0,111.0,100.0,13.3,1505.3,326.7,-0.7,1.9,2470.251,13.33,0.035,317.3
2019-12-01T07:16:03,42.805,6.029,-0.011,0.006,-0.056,103.0,112.0,100.0,13.4,1505.3,327.8,-0.7,1.8,2470.238,13.33,0.012,298.6
2019-12-01T07:19:03,42.805,6.029,-0.015,0.035,-0.029,105.0,112.0,99.0,13.4,1505.3,327.4,-0.7,1.8,2470.253,13.33,0.038,336.8
2019-12-01T07:22:03,42.805,6.029,-0.023,0.056,-0.006,105.0,112.0,100.0,13.4,1505.4,322.9,-0.7,1.9,2470.298,13.34,0.06,337.7
2019-12-01T07:25:03,42.805,6.029,-0.043,0.04,-0.029,104.0,111.0,100.0,13.4,1505.4,324.8,-0.7,1.8,2470.254,13.34,0.058,312.9
2019-12-01T07:28:03,42.805,6.029,-0.035,0.01,-0.049,103.0,113.0,100.0,13.4,1505.4,323.3,-0.7,1.9,2470.288,13.34,0.036,285.9
2019-12-01T07:31:03,42.805,6.029,-0.028,0.026,-0.019,104.0,114.0,100.0,13.3,1505.4,328.4,-0.7,1.8,2470.288,13.34,0.038,312.9
2019-12-01T07:34:03,42.805,6.029,-0.014,0.03,-0.017,103.0,112.0,101.0,13.4,1505.4,325.9,-0.6,1.8,2470.258,13.34,0.033,335.0
2019-12-01T07:37:03,42.805,6.029,-0.032,0.052,-0.049,103.0,112.0,101.0,13.4,1505.4,325.0,-0.7,1.9,2470.26,13.34,0.061,328.4
2019-12-01T07:40:03,42.805,6.029,0.0,0.045,-0.013,104.0,111.0,101.0,13.4,1505.4,324.8,-0.7,1.8,2470.28,13.34,0.045,0.0
2019-12-01T07:43:03,42.805,6.029,-0.015,0.014,-0.025,103.0,112.0,100.0,13.3,1505.4,323.3,-0.8,1.8,2470.364,13.34,0.02,313.0
2019-12-01T07:46:03,42.805,6.029,-0.038,0.037,-0.047,104.0,113.0,100.0,13.4,1505.4,325.3,-0.7,1.8,2470.31,13.34,0.053,314.2
2019-12-01T07:49:03,42.805,6.029,-0.024,0.017,0.0,104.0,112.0,101.0,13.4,1505.4,327.7,-0.7,1.8,2470.234,13.34,0.029,305.3
2019-12-01T07:52:03,42.805,6.029,-0.01,0.016,-0.031,102.0,111.0,101.0,13.3,1505.4,325.6,-0.7,1.8,2470.256,13.34,0.018,328.0
2019-12-01T07:55:03,42.805,6.029,-0.013,0.032,-0.018,103.0,110.0,101.0,13.4,1505.4,325.0,-0.7,1.9,2470.322,13.34,0.034,337.9
2019-12-01T07:58:03,42.805,6.029,-0.034,0.024,-0.024,101.0,112.0,101.0,13.4,1505.4,327.4,-0.7,1.8,2470.307,13.34,0.041,305.2
2019-12-01T08:04:03,42.805,6.029,-0.009,0.03,-0.016,103.0,113.0,101.0,13.4,1505.3,328.0,-0.7,1.8,2470.345,13.32,0.031,343.3
2019-12-01T08:07:03,42.805,6.029,-0.052,0.041,-0.063,104.0,112.0,100.0,13.3,1505.3,326.7,-0.7,1.8,2470.336,13.32,0.066,308.3
2019-12-01T08:10:03,42.805,6.029,-0.022,0.033,-0.001,104.0,111.0,101.0,13.4,1505.3,327.8,-0.7,1.8,2470.346,13.33,0.039,326.3
2019-12-01T08:13:03,42.805,6.029,-0.019,0.028,-0.006,103.0,111.0,101.0,13.3,1505.3,324.6,-0.7,1.8,2470.356,13.33,0.033,325.8
2019-12-01T08:16:03,42.805,6.029,-0.02,0.006,-0.033,103.0,113.0,102.0,13.4,1505.3,326.3,-0.7,1.8,2470.34,13.33,0.02,286.7
2019-12-01T08:19:03,42.805,6.029,-0.015,0.037,-0.017,102.0,111.0,102.0,13.4,1505.3,326.8,-0.7,1.8,2470.36,13.33,0.039,337.9
2019-12-01T08:22:03,42.805,6.029,0.001,0.028,-0.024,107.0,111.0,101.0,13.4,1505.4,326.3,-0.7,1.8,2470.367,13.34,0.028,2.0
2019-12-01T08:25:03,42.805,6.029,-0.024,0.019,-0.037,104.0,113.0,99.0,13.4,1505.4,323.1,-0.7,1.8,2470.327,13.34,0.03,308.4
2019-12-01T08:28:03,42.805,6.029,-0.012,0.008,-0.046,106.0,112.0,102.0,13.4,1505.4,326.0,-0.7,1.8,2470.364,13.34,0.014,303.7
2019-12-01T08:31:03,42.805,6.029,-0.016,0.024,-0.04,104.0,113.0,102.0,13.4,1505.4,325.3,-0.7,1.9,2470.362,13.34,0.028,326.3
2019-12-01T08:34:03,42.805,6.029,-0.019,0.021,-0.043,103.0,113.0,101.0,13.4,1505.4,327.2,-0.7,1.8,2470.362,13.34,0.028,317.9
2019-12-01T08:37:03,42.805,6.029,-0.022,0.026,-0.028,105.0,113.0,101.0,13.4,1505.4,325.6,-0.7,1.8,2470.35,13.34,0.034,319.8
2019-12-01T08:40:03,42.805,6.029,-0.021,0.018,-0.029,103.0,114.0,102.0,13.4,1505.4,328.4,-0.7,1.8,2470.4,13.34,0.027,310.6
2019-12-01T08:43:03,42.805,6.029,-0.03,0.003,-0.059,104.0,113.0,101.0,13.4,1505.4,323.5,-0.7,1.8,2470.353,13.34,0.03,275.7
2019-12-01T08:46:03,42.805,6.029,-0.039,0.024,-0.05,105.0,112.0,101.0,13.4,1505.4,326.5,-0.7,1.8,2470.349,13.34,0.045,301.6
2019-12-01T08:49:03,42.805,6.029,-0.03,0.006,-0.046,105.0,111.0,101.0,13.4,1505.4,324.9,-0.7,1.9,2470.397,13.34,0.03,281.3
2019-12-01T08:52:03,42.805,6.029,-0.032,0.035,-0.05,104.0,112.0,100.0,13.4,1505.4,325.7,-0.7,1.8,2470.386,13.34,0.047,317.6
2019-12-01T08:55:03,42.805,6.029,-0.011,0.007,-0.031,106.0,112.0,102.0,13.4,1505.4,327.2,-0.7,1.8,2470.349,13.34,0.013,302.5
2019-12-01T08:58:03,42.805,6.029,-0.006,0.044,-0.025,105.0,111.0,100.0,13.4,1505.4,326.8,-0.7,1.8,2470.359,13.34,0.044,352.2
2019-12-01T09:04:03,42.805,6.029,-0.043,0.012,-0.005,103.0,112.0,102.0,13.4,1505.3,328.1,-0.7,1.8,2470.385,13.32,0.044,285.6
2019-12-01T09:10:03,42.805,6.029,0.002,0.044,0.0,103.0,114.0,100.0,13.3,1505.3,328.2,-0.7,1.9,2470.433,13.31,0.044,2.6
2019-12-01T09:13:03,42.805,6.029,-0.033,0.029,-0.018,104.0,112.0,100.0,13.4,1505.3,326.1,-0.7,1.8,2470.415,13.32,0.043,311.3
2019-12-01T09:16:03,42.805,6.029,-0.007,0.04,-0.037,103.0,113.0,101.0,13.4,1505.3,323.3,-0.7,1.8,2470.412,13.32,0.04,350.1
2019-12-01T09:22:03,42.805,6.029,0.0,0.034,-0.036,107.0,113.0,101.0,13.4,1505.3,326.9,-0.7,1.9,2470.444,13.31,0.034,0.0
2019-12-01T09:25:03,42.805,6.029,-0.009,0.02,-0.023,104.0,112.0,101.0,13.3,1505.3,328.4,-0.8,1.8,2470.425,13.32,0.021,335.8
2019-12-01T09:28:03,42.805,6.029,-0.009,0.027,-0.007,106.0,113.0,101.0,13.3,1505.3,326.6,-0.7,1.8,2470.408,13.33,0.028,341.6
2019-12-01T09:31:03,42.805,6.029,-0.024,0.028,-0.025,103.0,112.0,102.0,13.3,1505.3,323.0,-0.8,1.8,2470.413,13.33,0.036,319.4
2019-12-01T09:34:03,42.805,6.029,-0.018,0.008,-0.043,103.0,113.0,101.0,13.4,1505.3,324.5,-0.7,1.8,2470.413,13.33,0.019,294.0
2019-12-01T09:37:03,42.805,6.029,-0.003,0.02,-0.009,102.0,111.0,100.0,13.4,1505.3,326.8,-0.7,1.8,2470.382,13.33,0.02,351.5
2019-12-01T09:40:03,42.805,6.029,-0.041,0.018,-0.012,105.0,113.0,101.0,13.4,1505.3,323.9,-0.6,1.8,2470.388,13.33,0.044,293.7
2019-12-01T09:43:03,42.805,6.029,-0.01,0.011,-0.081,103.0,113.0,101.0,13.3,1505.4,324.6,-0.7,1.8,2470.391,13.34,0.014,317.7
2019-12-01T09:46:03,42.805,6.029,-0.047,0.036,-0.031,103.0,112.0,102.0,13.4,1505.4,326.2,-0.7,1.8,2470.372,13.34,0.059,307.5
2019-12-01T09:49:03,42.805,6.029,-0.014,0.03,-0.034,103.0,113.0,102.0,13.4,1505.4,324.9,-0.7,1.8,2470.401,13.34,0.033,335.0
2019-12-01T09:52:03,42.805,6.029,-0.017,0.019,-0.021,105.0,111.0,101.0,13.4,1505.4,325.7,-0.7,1.9,2470.401,13.34,0.025,318.2
2019-12-01T09:55:03,42.805,6.029,0.005,0.005,-0.016,105.0,111.0,100.0,13.4,1505.4,328.5,-0.7,1.8,2470.41,13.34,0.007,45.0
2019-12-01T09:58:03,42.805,6.029,-0.004,0.028,-0.047,103.0,111.0,101.0,13.4,1505.4,327.0,-0.7,1.8,2470.41,13.34,0.028,351.9
2019-12-01T10:04:03,42.805,6.029,-0.017,0.024,-0.037,103.0,112.0,100.0,13.4,1505.3,326.6,-0.8,1.8,2470.479,13.32,0.029,324.7
2019-12-01T10:07:03,42.805,6.029,0.003,0.012,0.011,104.0,114.0,100.0,13.4,1505.3,324.6,-0.7,1.9,2470.429,13.32,0.012,14.0